Simultaneous Nadir Overpasses (SNOs) Predictions

Prediction of SNOs between NOAA-15 and METOP-C Satellite Orbit:

Table of predicted SNOs for the next 14.0 days since TLE Epoch: 2/24/2024
Index Date (NOAA-15) Time (NOAA-15) Lat,Lon (NOAA-15) SZA (NOAA-15 ) Date (METOP-C) Time (METOP-C) Lat,Lon (METOP-C) SZA (METOP-C ) Distance(km) Time Diff (sec)
1 02/25/2024 23:03:32 81.06,-127.51 91.62 02/25/2024 23:02:19 81.08,-127.55 91.60 1.49 73
2 02/25/2024 23:54:04 -81.07, 39.73 88.40 02/25/2024 23:53:01 -81.07, 39.65 88.43 1.38 63
3 02/26/2024 00:44:33 81.08,-153.03 91.59 02/26/2024 00:43:41 81.07,-153.04 91.56 0.75 52
4 02/26/2024 01:35:04 -81.07, 14.57 88.42 02/26/2024 01:34:22 -81.08, 14.53 88.43 1.64 42
5 02/26/2024 02:25:33 81.07,-178.18 91.56 02/26/2024 02:25:02 81.08,-178.15 91.56 0.91 31
6 02/26/2024 03:16:05 -81.08, -10.96 88.46 02/26/2024 03:15:44 -81.07, -10.95 88.47 0.56 21
7 02/26/2024 04:06:34 81.08, 156.29 91.53 02/26/2024 04:06:24 81.07, 156.36 91.52 1.72 10
8 02/26/2024 04:57:05 -81.07, -36.11 88.48 02/26/2024 04:57:05 -81.08, -36.07 88.47 1.16 0
9 02/26/2024 05:47:34 81.08, 131.14 91.50 02/26/2024 05:47:45 81.08, 131.24 91.52 1.77 11
10 02/26/2024 06:38:06 -81.09, -61.64 88.52 02/26/2024 06:38:27 -81.08, -61.56 88.51 1.86 21
11 02/26/2024 07:28:34 81.08, 105.99 91.48 02/26/2024 07:29:06 81.09, 106.13 91.52 2.91 32
12 02/26/2024 08:19:06 -81.08, -86.80 88.54 02/26/2024 08:19:48 -81.08, -86.67 88.51 2.19 42
13 02/26/2024 09:09:35 81.09, 80.46 91.44 02/26/2024 09:10:28 81.08, 80.64 91.48 3.03 53
14 02/26/2024 10:00:06 -81.08,-111.96 88.56 02/26/2024 10:01:09 -81.09,-111.79 88.51 3.36 63



Historial Predications of SNOs between NOAA-15 and METOP-C
